Weather History for Hastings, NE

Change the Weather History Date:

Sunday, December 1, 2013

  Actual Average Record
Temperature  
Mean Temperature 36 °F 32 °F  
Max Temperature 51 °F 41 °F 71 °F (1998)
Min Temperature 20 °F 22 °F -6 °F (1919)
Degree Days  
Heating Degree Days 29 33  
Month to date heating degree days 29 33  
Since 1 July heating degree days 1294 1314  
Cooling Degree Days 0 0  
Month to date cooling degree days 0 0  
Year to date cooling degree days 1158 1077  
Moisture  
Dew Point 25 °F    
Average Humidity 69    
Maximum Humidity 91    
Minimum Humidity 46    
Precipitation  
Precipitation 0.00 in 0.04 in 0.59 in (2007)
Month to date precipitation 0.00 0.04  
Year to date precipitation 25.07 26.54  
Snow  
Snow 0.00 in 0.20 in 3.50 in (1981)
Month to date snowfall 0.0 0.2  
Since 1 July snowfall 0.4 4.0  
Snow Depth 0.00 in    
Sea Level Pressure  
Sea Level Pressure 30.04 in    
Wind  
Wind Speed 4 mph (SE)    
Max Wind Speed 9 mph    
Max Gust Speed 13 mph    
Visibility 10 miles    
Events      
T = Trace of Precipitation, MM = Missing Value Source: NWS Daily Summary

Daily Weather History Graph

Daily Weather History Graph

Search for Another Location

Airport:

Trip Planner

Search our weather history database for the weather conditions in past years. The results will help you decide how hot, cold, wet, or windy it might be!

Date:

Astronomy

Dec. 01, 2013 Rise Set
Actual Time 7:38 AM CST 5:07 PM CST
Civil Twilight 7:07 AM CST 5:37 PM CST
Nautical Twilight 6:34 AM CST 6:11 PM CST
Astronomical Twilight 6:01 AM CST 6:44 PM CST
Moon 5:57 AM CST (12/1) 4:18 PM CST (12/1)
Length of Visible Light 10h 29m
Length of Day
9h 28m
Waning Crescent, 2% of the Moon is Illuminated
Dec 1
Waning Crescent
Dec 2
New
Dec 9
First Quarter
Dec 17
Full
Dec 25
Last Quarter

Hourly Weather History & Observations

Time (CST) Temp. Windchill Dew Point Humidity Pressure Visibility Wind Dir Wind Speed Gust Speed Precip Events Conditions
12:53 AM 27.0 °F 20.5 °F 21.0 °F 78% 30.15 in 10.0 mi NE 5.8 mph - N/A   Clear
1:53 AM 25.0 °F 19.3 °F 19.9 °F 81% 30.15 in 10.0 mi NNE 4.6 mph - N/A   Clear
2:53 AM 23.0 °F 17.0 °F 19.0 °F 85% 30.15 in 10.0 mi NNE 4.6 mph - N/A   Clear
3:53 AM 23.0 °F 18.4 °F 19.0 °F 85% 30.14 in 10.0 mi NNE 3.5 mph - N/A   Clear
4:53 AM 23.0 °F 18.4 °F 19.0 °F 85% 30.13 in 10.0 mi NNE 3.5 mph - N/A   Clear
5:53 AM 19.9 °F 13.4 °F 17.1 °F 89% 30.15 in 10.0 mi NNE 4.6 mph - N/A   Clear
6:53 AM 21.0 °F 14.6 °F 18.0 °F 88% 30.17 in 10.0 mi North 4.6 mph - N/A   Clear
7:53 AM 21.0 °F - 18.0 °F 88% 30.17 in 9.0 mi Calm Calm - N/A   Clear
8:53 AM 28.0 °F - 23.0 °F 81% 30.17 in 9.0 mi Calm Calm - N/A   Clear
9:53 AM 35.1 °F - 26.1 °F 70% 30.15 in 10.0 mi Calm Calm - N/A   Clear
10:53 AM 39.9 °F 35.1 °F 28.0 °F 63% 30.14 in 10.0 mi SE 6.9 mph - N/A   Clear
11:53 AM 43.0 °F 39.5 °F 28.0 °F 56% 30.10 in 10.0 mi SSE 5.8 mph - N/A   Clear
12:53 PM 46.9 °F - 28.9 °F 50% 30.06 in 10.0 mi South 5.8 mph - N/A   Clear
1:53 PM 48.0 °F - 28.9 °F 48% 30.01 in 10.0 mi SSE 5.8 mph - N/A   Clear
2:53 PM 50.0 °F - 30.0 °F 46% 29.98 in 10.0 mi South 5.8 mph - N/A   Clear
3:53 PM 50.0 °F - 30.0 °F 46% 29.96 in 10.0 mi Variable 4.6 mph - N/A   Clear
4:53 PM 48.0 °F - 28.9 °F 48% 29.96 in 10.0 mi SSW 3.5 mph - N/A   Mostly Cloudy
5:53 PM 39.0 °F - 27.0 °F 62% 29.97 in 10.0 mi Calm Calm - N/A   Clear
6:53 PM 37.9 °F 34.4 °F 28.0 °F 68% 29.94 in 10.0 mi SSE 4.6 mph - N/A   Clear
7:53 PM 33.1 °F 30.0 °F 25.0 °F 72% 29.93 in 10.0 mi South 3.5 mph - N/A   Clear
8:53 PM 33.1 °F 28.7 °F 25.0 °F 72% 29.91 in 10.0 mi South 4.6 mph - N/A   Clear
9:53 PM 36.0 °F 33.3 °F 27.0 °F 70% 29.87 in 10.0 mi South 3.5 mph - N/A   Clear
10:53 PM 36.0 °F 32.1 °F 28.0 °F 73% 29.84 in 10.0 mi South 4.6 mph - N/A   Clear
11:53 PM 37.0 °F 31.6 °F 28.0 °F 70% 29.82 in 10.0 mi South 6.9 mph - N/A   Overcast